UKUBE-1 (40074 NORAD) Tracking and Keplerian Element Data

This shows tracking and keplerian element data for the satellite.

Feedback or suggestion? Click here.




ElementValue
Catalog40074
NameUKUBE-1
Epoch Orbit57344
Epoch Day34.80682546
Epoch Year2025
RAAN346.5881
Inclination98.38
Eccentricity0.0002503
Argument of Perigee53.8379
Mean Anonmoly306.3074
Mean Motion15.01651247
Decay Rate0.00015701
L11 40074U 14037F 25034.80682546 .00015701 00000+0 12123-2 0 9997
L22 40074 98.3800 346.5881 0002503 53.8379 306.3074 15.01651247573443



Live tracking and technical data element details for UKUBE-1 (NORAD 40074). UKUBE-1 can be tracked NOW for your location showing map with azimuth and elevation plus other details from your city location.







IsCatalogInMostPopularTable: catalog: 40074, numindb: 349
Update: records affected: 1



GetName: 40074 UKUBE-1

Hit Count: updated at: Sat, 24 May 2025 16:13:04 GMT